Starlink 33572

operational
NORAD ID: 62767 Int'l Des: 2025-015 Owner: SPXS Country: US Constellation: starlink
LEOCIRCULAR

Starlink 33572について

説明を読み込み中...

リアルタイム位置

3D地球を読み込み中...

次回通過

高度履歴

Altitude vs Time

uPlot chart will show altitude changes over time

軌道要素

1 62767U 25015K 26036.57138645 .00057808 00000-0 19455-2 0 9991
2 62767 53.1556 111.6451 0001160 90.5066 269.6068 15.30254777 59505
Epoch: Feb 5, 2026 • Age: 18 hours

現在のステータス

高度 475.3 km
速度 7.63 km/s
衛星直下点 2.29°N, 34.1°E
打ち上げ日 Jan 21, 2025
運用期間 1 years
タイプ internet

技術仕様

分類 Payload
質量 575.00 kg
乾燥質量 530.00 kg
総質量 575.00 kg
長さ 0.30 m
直径 4.10 m
スパン 29.00 m
形状 Box + pan
製造者 SPXS
バスタイプ Starlink V2MO
フェーズステータス In Orbit
所有者/国 SPXS/US

大規模コンステレーション

Loading constellations...